When you browse on this site, cookies collect data to enhance your experience and personalize the content and advertising you see.
Visit our Privacy Policy to learn more. By continuing to use the site, you agree to this use of cookies and data.
  • în România
  • Lista ţărilor
  • Pe 7 zile
  • Temperatura apei
  • Meteo pe hartă
  • Widget-uri
  • user-avatar
    Intrare

    Meteo pe oră la Sanok

    Astăzi, 25 August, Duminică

    Timp Temperatura Precipitaţii Vânt Presiune Umiditate
    00:00 +17°C° 0 mm 2 m/s 741 mmHg 89%
    01:00 +17°C° 0 mm 2 m/s 741 mmHg 90%
    02:00 +18°C° 0 mm 1 m/s 741 mmHg 91%
    03:00 +16°C° 0 mm 1 m/s 741 mmHg 92%
    04:00 +16°C° 0 mm 1 m/s 741 mmHg 93%
    05:00 +18°C° 0 mm 1 m/s 741 mmHg 89%
    06:00 +20°C° 0 mm 1 m/s 741 mmHg 85%
    07:00 +21°C° 0 mm 1 m/s 741 mmHg 81%
    08:00 +23°C° 0 mm 1 m/s 741 mmHg 75%
    09:00 +25°C° 0 mm 2 m/s 741 mmHg 68%
    10:00 +27°C° 0 mm 2 m/s 741 mmHg 62%
    11:00 +28°C° 0 mm 2 m/s 741 mmHg 61%
    12:00 +28°C° 0 mm 3 m/s 741 mmHg 60%
    13:00 +29°C° 0 mm 3 m/s 741 mmHg 58%
    14:00 +28°C° 0.1 mm 3 m/s 740 mmHg 62%
    15:00 +28°C° 0.1 mm 3 m/s 740 mmHg 65%
    16:00 +27°C° 0.1 mm 3 m/s 740 mmHg 68%
    17:00 +26°C° 0 mm 3 m/s 740 mmHg 74%
    18:00 +24°C° 0 mm 3 m/s 740 mmHg 80%
    19:00 +21°C° 0 mm 2 m/s 740 mmHg 86%
    20:00 +21°C° 0 mm 2 m/s 740 mmHg 87%
    21:00 +20°C° 0 mm 2 m/s 740 mmHg 89%
    22:00 +19°C° 0 mm 2 m/s 740 mmHg 91%
    23:00 +19°C° 0.1 mm 2 m/s 740 mmHg 91%

    Mâine, 26 August, Luni

    Timp Temperatura Precipitaţii Vânt Presiune Umiditate
    00:00 +20°C° 0.1 mm 1 m/s 740 mmHg 91%
    01:00 +19°C° 0.1 mm 1 m/s 740 mmHg 91%
    02:00 +19°C° 0 mm 1 m/s 740 mmHg 91%
    03:00 +19°C° 0 mm 1 m/s 740 mmHg 90%
    04:00 +19°C° 0 mm 1 m/s 740 mmHg 90%
    05:00 +20°C° 0 mm 1 m/s 740 mmHg 86%
    06:00 +22°C° 0 mm 1 m/s 740 mmHg 82%
    07:00 +23°C° 0 mm 1 m/s 740 mmHg 78%
    08:00 +25°C° 0 mm 1 m/s 740 mmHg 70%
    09:00 +27°C° 0 mm 1 m/s 740 mmHg 62%
    10:00 +29°C° 0 mm 1 m/s 740 mmHg 54%
    11:00 +30°C° 0 mm 2 m/s 740 mmHg 52%
    12:00 +30°C° 0 mm 2 m/s 740 mmHg 51%
    13:00 +31°C° 0 mm 2 m/s 740 mmHg 49%
    14:00 +30°C° 0.1 mm 2 m/s 740 mmHg 53%
    15:00 +30°C° 0.1 mm 2 m/s 739 mmHg 57%
    16:00 +29°C° 0.1 mm 2 m/s 739 mmHg 61%
    17:00 +27°C° 0.1 mm 2 m/s 739 mmHg 68%
    18:00 +25°C° 0.1 mm 1 m/s 739 mmHg 75%
    19:00 +23°C° 0.1 mm 1 m/s 739 mmHg 81%
    20:00 +23°C° 0.1 mm 1 m/s 739 mmHg 82%
    21:00 +22°C° 0.1 mm 1 m/s 739 mmHg 83%
    22:00 +21°C° 0.1 mm 1 m/s 739 mmHg 84%
    23:00 +21°C° 0 mm 1 m/s 739 mmHg 84%

    Poimâine, 27 August, Marţi

    Timp Temperatura Precipitaţii Vânt Presiune Umiditate
    00:00 +21°C° 0 mm 1 m/s 739 mmHg 83%
    01:00 +21°C° 0 mm 1 m/s 739 mmHg 82%
    02:00 +20°C° 0.1 mm 1 m/s 739 mmHg 83%
    03:00 +20°C° 0.1 mm 1 m/s 739 mmHg 83%
    04:00 +20°C° 0.1 mm 1 m/s 739 mmHg 83%
    05:00 +21°C° 0 mm 1 m/s 739 mmHg 80%
    06:00 +23°C° 0 mm 1 m/s 739 mmHg 77%
    07:00 +24°C° 0 mm 1 m/s 739 mmHg 75%
    08:00 +26°C° 0 mm 1 m/s 739 mmHg 67%
    09:00 +28°C° 0 mm 1 m/s 740 mmHg 60%
    10:00 +30°C° 0 mm 1 m/s 740 mmHg 52%
    11:00 +31°C° 0 mm 1 m/s 740 mmHg 50%
    12:00 +31°C° 0 mm 1 m/s 740 mmHg 48%
    13:00 +32°C° 0 mm 2 m/s 740 mmHg 46%
    14:00 +31°C° 0.1 mm 2 m/s 739 mmHg 51%
    15:00 +30°C° 0.1 mm 2 m/s 739 mmHg 56%
    16:00 +29°C° 0.1 mm 3 m/s 739 mmHg 61%
    17:00 +27°C° 0.1 mm 2 m/s 739 mmHg 67%
    18:00 +25°C° 0.1 mm 2 m/s 739 mmHg 72%
    19:00 +23°C° 0.1 mm 2 m/s 739 mmHg 78%
    20:00 +21°C° 0 mm 2 m/s 739 mmHg 78%
    21:00 +21°C° 0 mm 2 m/s 739 mmHg 78%
    22:00 +21°C° 0 mm 1 m/s 739 mmHg 79%
    23:00 +20°C° 0 mm 1 m/s 739 mmHg 78%

    28 August, Miercuri

    Timp Temperatura Precipitaţii Vânt Presiune Umiditate
    00:00 +20°C° 0 mm 1 m/s 739 mmHg 77%
    01:00 +20°C° 0 mm 1 m/s 739 mmHg 76%
    02:00 +19°C° 0 mm 1 m/s 739 mmHg 76%
    03:00 +19°C° 0 mm 1 m/s 739 mmHg 76%
    04:00 +19°C° 0 mm 1 m/s 739 mmHg 76%
    05:00 +20°C° 0 mm 1 m/s 739 mmHg 74%
    06:00 +22°C° 0 mm 1 m/s 739 mmHg 72%
    07:00 +24°C° 0 mm 1 m/s 739 mmHg 70%
    08:00 +26°C° 0 mm 1 m/s 739 mmHg 63%
    09:00 +28°C° 0 mm 1 m/s 739 mmHg 56%
    10:00 +30°C° 0 mm 1 m/s 739 mmHg 50%
    11:00 +30°C° 0 mm 1 m/s 739 mmHg 48%
    12:00 +31°C° 0 mm 2 m/s 738 mmHg 47%
    13:00 +31°C° 0 mm 2 m/s 738 mmHg 45%
    14:00 +31°C° 0 mm 2 m/s 738 mmHg 50%
    15:00 +30°C° 0 mm 2 m/s 738 mmHg 55%
    16:00 +29°C° 0 mm 2 m/s 737 mmHg 60%
    17:00 +27°C° 0 mm 2 m/s 737 mmHg 67%
    18:00 +25°C° 0 mm 2 m/s 737 mmHg 74%
    19:00 +23°C° 0 mm 1 m/s 737 mmHg 81%
    20:00 +22°C° 0 mm 1 m/s 737 mmHg 81%
    21:00 +22°C° 0 mm 1 m/s 737 mmHg 82%
    22:00 +21°C° 0 mm 1 m/s 737 mmHg 82%
    23:00 +21°C° 0 mm 1 m/s 737 mmHg 82%

    29 August, Joi

    Timp Temperatura Precipitaţii Vânt Presiune Umiditate
    00:00 +21°C° 0 mm 1 m/s 737 mmHg 81%
    01:00 +20°C° 0 mm 1 m/s 737 mmHg 80%
    02:00 +20°C° 0 mm 1 m/s 737 mmHg 80%
    03:00 +20°C° 0 mm 1 m/s 737 mmHg 79%
    04:00 +20°C° 0 mm 1 m/s 736 mmHg 79%
    05:00 +21°C° 0 mm 1 m/s 737 mmHg 77%
    06:00 +22°C° 0 mm 1 m/s 737 mmHg 75%
    07:00 +23°C° 0 mm 1 m/s 737 mmHg 73%
    08:00 +25°C° 0 mm 1 m/s 737 mmHg 66%
    09:00 +27°C° 0 mm 1 m/s 737 mmHg 60%
    10:00 +29°C° 0 mm 1 m/s 737 mmHg 53%
    11:00 +29°C° 0 mm 2 m/s 737 mmHg 52%
    12:00 +30°C° 0 mm 2 m/s 737 mmHg 50%
    13:00 +30°C° 0 mm 2 m/s 737 mmHg 49%
    14:00 +30°C° 0.1 mm 2 m/s 737 mmHg 53%
    15:00 +29°C° 0.1 mm 2 m/s 737 mmHg 57%
    16:00 +28°C° 0.1 mm 3 m/s 736 mmHg 61%
    17:00 +26°C° 0.3 mm 2 m/s 737 mmHg 68%
    18:00 +23°C° 0.3 mm 2 m/s 737 mmHg 75%
    19:00 +20°C° 0.3 mm 2 m/s 737 mmHg 83%
    20:00 +19°C° 0 mm 2 m/s 737 mmHg 83%
    21:00 +20°C° 0 mm 1 m/s 737 mmHg 84%
    22:00 +19°C° 0 mm 1 m/s 737 mmHg 84%
    23:00 +19°C° 0 mm 1 m/s 737 mmHg 85%

    30 August, Vineri

    Timp Temperatura Precipitaţii Vânt Presiune Umiditate
    00:00 +18°C° 0 mm 1 m/s 737 mmHg 85%
    01:00 +18°C° 0 mm 1 m/s 737 mmHg 85%
    02:00 +18°C° 0 mm 1 m/s 737 mmHg 86%
    03:00 +15°C° 0 mm 0 m/s 737 mmHg 86%
    04:00 +15°C° 0 mm 0 m/s 737 mmHg 87%
    05:00 +16°C° 0 mm 0 m/s 737 mmHg 84%
    06:00 +18°C° 0 mm 0 m/s 737 mmHg 81%
    07:00 +19°C° 0 mm 0 m/s 737 mmHg 78%
    08:00 +23°C° 0 mm 1 m/s 738 mmHg 70%
    09:00 +25°C° 0 mm 1 m/s 738 mmHg 63%
    10:00 +27°C° 0 mm 1 m/s 738 mmHg 56%
    11:00 +28°C° 0 mm 2 m/s 738 mmHg 55%
    12:00 +28°C° 0 mm 2 m/s 738 mmHg 54%
    13:00 +29°C° 0 mm 3 m/s 738 mmHg 53%
    14:00 +28°C° 0 mm 3 m/s 737 mmHg 55%
    15:00 +27°C° 0 mm 3 m/s 737 mmHg 57%
    16:00 +27°C° 0 mm 3 m/s 737 mmHg 59%
    17:00 +25°C° 0 mm 2 m/s 737 mmHg 64%
    18:00 +21°C° 0 mm 2 m/s 737 mmHg 70%
    19:00 +19°C° 0 mm 2 m/s 737 mmHg 76%
    20:00 +19°C° 0 mm 1 m/s 737 mmHg 76%
    21:00 +19°C° 0 mm 1 m/s 737 mmHg 76%
    22:00 +18°C° 0 mm 1 m/s 737 mmHg 76%
    23:00 +16°C° 0 mm 1 m/s 737 mmHg 76%
    Arată mai mult